NY5V Weather Reports


Display with metric or nautical units.
time (UTC)temp
F
wind
direction
speed
MPH
gust
MPH
rain 1hr
in
rain 24hr
in
rain mn
in
humidity
%
barometer
mb
20260905234259 80 48 0.0 0.0 0.00 0.07 0.07 92 1013.0
20260905233254 80 39 0.0 0.0 0.00 0.07 0.07 91 1012.9
20260905232249 80 47 0.0 0.0 0.00 0.07 0.07 92 1013.0
20260905231245 80 44 0.0 0.0 0.00 0.07 0.07 94 1012.8
20260905230245 80 44 0.0 0.0 0.00 0.07 0.07 93 1012.9
20260905225240 80 40 0.0 0.0 0.00 0.07 0.07 93 1012.6
20260905224235 80 47 0.0 0.0 0.00 0.07 0.07 93 1012.8
20260905223234 80 49 0.0 0.0 0.00 0.07 0.07 92 1013.0
20260905222234 80 41 0.0 0.0 0.00 0.07 0.07 91 1012.9
20260905221233 80 46 0.0 0.0 0.00 0.07 0.07 92 1012.8
20260905220230 79 50 1.0 1.0 0.00 0.07 0.07 91 1013.0
20260905215225 79 51 0.0 0.0 0.00 0.07 0.07 91 1013.0
20260905214222 80 44 0.0 0.0 0.00 0.07 0.07 89 1013.2
20260905213219 80 54 0.0 0.0 0.07 0.07 0.07 90 1013.1
20260905212219 80 47 0.0 0.0 0.00 0.06 0.06 91 1012.8
20260905211215 80 45 0.0 0.0 0.00 0.06 0.06 91 1012.6
20260905210211 79 342 2.0 3.0 0.00 0.06 0.06 92 1012.6
20260905205210 78 24 1.0 1.0 0.00 0.06 0.06 93 1013.2
20260905204206 78 20 3.0 4.0 0.00 0.06 0.06 93 1013.4
20260905203201 78 80 3.0 4.0 0.12 0.06 0.06 92 1013.6
20260905202157 80 342 2.0 6.0 0.00 0.04 0.04 88 1013.6
20260905201153 80 45 2.0 3.0 0.00 0.04 0.04 89 1013.7
20260905200149 82 25 2.0 2.0 0.12 0.04 0.04 90 1013.1
20260905195148 91 47 0.0 0.0 0.19 0.03 0.03 72 1012.9
20260905194143 94 55 0.0 0.0 0.00 0.00 0.00 55 1013.0
20260905193138 95 46 0.0 1.0 0.00 0.00 0.00 58 1012.9
20260905192137 95 36 1.0 2.0 0.00 0.00 0.00 54 1012.8
20260905191134 93 53 0.0 0.0 0.00 0.00 0.00 57 1013.0
20260905190132 93 54 0.0 0.0 0.00 0.00 0.00 57 1013.2
20260905185131 94 102 2.0 3.0 0.00 0.00 0.00 56 1013.3
20260905184130 95 53 0.0 0.0 0.00 0.00 0.00 57 1013.4
20260905183126 93 41 0.0 0.0 0.00 0.00 0.00 58 1013.6
20260905182125 96 36 0.0 1.0 0.00 0.00 0.00 53 1013.7
20260905181124 96 58 2.0 2.0 0.00 0.00 0.00 53 1014.0
20260905180121 94 48 0.0 1.0 0.00 0.00 0.00 55 1014.0
20260905175115 94 56 1.0 1.0 0.00 0.00 0.00 57 1014.3
20260905174112 95 45 0.0 0.0 0.00 0.00 0.00 56 1014.5
20260905173109 94 51 1.0 1.0 0.00 0.00 0.00 57 1014.5
20260905172109 93 48 1.0 1.0 0.00 0.00 0.00 60 1014.8
20260905171108 91 43 0.0 0.0 0.00 0.00 0.00 62 1014.9
20260905170105 93 90 2.0 2.0 0.00 0.00 0.00 62 1014.9
20260905165100 91 7 1.0 2.0 0.00 0.00 0.00 64 1015.0
20260905164055 92 17 1.0 2.0 0.00 0.00 0.00 64 1015.1
20260905163054 91 91 3.0 3.0 0.00 0.00 0.00 66 1015.4
20260905162049 89 56 1.0 1.0 0.00 0.00 0.00 69 1015.8
20260905161046 89 57 1.0 1.0 0.00 0.00 0.00 71 1015.6
20260905160045 90 45 0.0 0.0 0.00 0.00 0.00 70 1015.4
20260905155044 89 57 0.0 0.0 0.00 0.00 0.00 71 1015.5
20260905154040 88 47 0.0 0.0 0.00 0.00 0.00 73 1015.5
20260905153036 87 222 1.0 3.0 0.00 0.00 0.00 74 1015.5
20260905152032 86 42 0.0 0.0 0.00 0.00 0.00 76 1015.5
20260905151028 85 43 0.0 1.0 0.00 0.00 0.00 79 1015.2
20260905150027 86 42 0.0 0.0 0.00 0.00 0.00 78 1015.2
20260905145026 85 2 2.0 3.0 0.00 0.00 0.00 78 1015.0
20260905144026 86 45 0.0 0.0 0.00 0.00 0.00 78 1015.2
20260905143026 84 29 0.0 1.0 0.00 0.00 0.00 80 1015.4
20260905142026 84 48 0.0 0.0 0.00 0.00 0.00 80 1015.2
20260905141023 84 48 0.0 0.0 0.00 0.00 0.00 79 1015.2
20260905140022 83 47 0.0 0.0 0.00 0.00 0.00 82 1015.2
20260905135019 83 40 0.0 1.0 0.00 0.00 0.00 82 1015.2
20260905134018 83 49 0.0 0.0 0.00 0.00 0.00 81 1015.0
20260905133013 83 46 0.0 0.0 0.00 0.00 0.00 82 1015.1
20260905132008 82 43 1.0 1.0 0.00 0.00 0.00 83 1015.0
20260905131005 81 40 0.0 0.0 0.00 0.00 0.00 85 1015.0
20260905130004 80 38 0.0 0.0 0.00 0.00 0.00 86 1015.0
20260905125000 79 43 0.0 0.0 0.00 0.00 0.00 89 1015.0
20260905123958 78 44 0.0 0.0 0.00 0.00 0.00 91 1014.8
20260905122954 77 44 0.0 0.0 0.00 0.00 0.00 92 1014.8
20260905121949 77 44 0.0 0.0 0.00 0.00 0.00 92 1014.6
20260905120944 77 44 0.0 0.0 0.00 0.00 0.00 92 1014.8
20260905115940 77 44 0.0 0.0 0.00 0.00 0.00 91 1014.9
20260905114934 78 44 0.0 0.0 0.00 0.00 0.00 91 1014.4
20260905113933 78 45 0.0 0.0 0.00 0.00 0.00 90 1014.4
20260905112929 78 44 0.0 0.0 0.00 0.00 0.00 90 1014.3
20260905111925 78 44 0.0 0.0 0.00 0.00 0.00 90 1014.3
20260905110926 79 42 0.0 0.0 0.00 0.00 0.00 88 1014.2
20260905105920 78 43 0.0 0.0 0.00 0.00 0.00 88 1014.4
20260905104919 78 42 0.0 0.0 0.00 0.00 0.00 90 1014.2
20260905103915 78 41 0.0 0.0 0.00 0.00 0.00 91 1014.3
20260905102913 78 42 0.0 0.0 0.00 0.00 0.00 91 1014.1
20260905101909 77 42 0.0 0.0 0.00 0.00 0.00 93 1014.3
20260905100908 78 42 0.0 0.0 0.00 0.00 0.00 93 1014.2
20260905095903 78 42 0.0 0.0 0.00 0.00 0.00 93 1014.2
20260905094858 78 41 0.0 0.0 0.00 0.00 0.00 92 1014.3
20260905093858 78 43 0.0 0.0 0.00 0.00 0.00 92 1014.1
20260905092856 78 42 0.0 0.0 0.00 0.00 0.00 91 1014.1
20260905091851 79 42 0.0 0.0 0.00 0.00 0.00 90 1014.1
20260905090850 79 41 0.0 0.0 0.00 0.00 0.00 90 1013.7
20260905085845 79 42 0.0 0.0 0.00 0.00 0.00 89 1013.9
20260905084841 78 42 0.0 0.0 0.00 0.00 0.00 91 1013.7
20260905083841 78 42 0.0 0.0 0.00 0.00 0.00 92 1013.8
20260905082838 79 42 0.0 0.0 0.00 0.00 0.00 90 1013.7
20260905081834 79 41 0.0 0.0 0.00 0.00 0.00 90 1013.9
20260905080834 79 37 0.0 0.0 0.00 0.00 0.00 89 1013.9
20260905075833 79 43 0.0 0.0 0.00 0.00 0.00 89 1013.9
20260905074833 80 42 0.0 0.0 0.00 0.00 0.00 88 1013.9
20260905073830 80 41 0.0 0.0 0.00 0.00 0.00 86 1014.1
20260905072825 81 41 0.0 0.0 0.00 0.00 0.00 86 1014.0
20260905071823 81 42 0.0 1.0 0.00 0.00 0.00 84 1014.3
20260905070819 81 39 1.0 1.0 0.00 0.00 0.00 84 1014.2
20260905065814 82 35 0.0 0.0 0.00 0.00 0.00 83 1014.5
20260905064814 82 30 2.0 3.0 0.00 0.00 0.00 83 1014.5
20260905063814 82 39 0.0 0.0 0.00 0.00 0.00 83 1014.4
20260905062812 82 42 0.0 1.0 0.00 0.00 0.00 82 1014.2
20260905061807 82 40 0.0 0.0 0.00 0.00 0.00 82 1014.4
20260905060802 82 43 0.0 0.0 0.00 0.00 0.00 82 1014.1
20260905055757 82 41 0.0 0.0 0.00 0.00 0.00 81 1014.3
20260905054753 83 44 0.0 0.0 0.00 0.00 0.00 80 1014.1
20260905053748 83 44 0.0 0.0 0.00 0.00 0.00 79 1014.0
20260905052743 83 37 1.0 1.0 0.00 0.00 0.00 79 1013.9
20260905051744 83 43 0.0 0.0 0.00 0.00 0.00 79 1014.1
20260905050743 83 41 1.0 2.0 0.00 0.00 0.00 78 1013.8
20260905045739 83 44 0.0 0.0 0.00 0.00 0.00 77 1013.8
20260905044735 84 47 0.0 0.0 0.00 0.00 0.00 75 1013.7
20260905043735 84 42 0.0 0.0 0.00 0.00 0.00 74 1014.1
20260905042730 84 33 0.0 0.0 0.00 0.00 0.00 74 1014.0
20260905041725 84 42 0.0 1.0 0.00 0.00 0.00 74 1014.0
20260905040721 84 45 0.0 0.0 0.00 0.00 0.00 73 1014.0
20260905035720 85 43 2.0 2.0 0.00 0.00 0.00 73 1014.0
20260905034719 85 41 1.0 1.0 0.00 0.00 0.00 72 1014.3
20260905033717 86 11 1.0 1.0 0.00 0.00 0.00 71 1014.3
20260905032718 86 46 0.0 0.0 0.00 0.00 0.00 70 1014.1
20260905031715 86 42 0.0 1.0 0.00 0.00 0.00 69 1014.2
20260905030711 86 49 0.0 1.0 0.00 0.00 0.00 71 1013.8
20260905025707 86 44 0.0 0.0 0.00 0.00 0.00 70 1014.0
20260905024704 86 46 0.0 0.0 0.00 0.00 0.00 71 1013.8
20260905023700 86 46 0.0 0.0 0.00 0.00 0.00 69 1013.7
20260905022659 87 50 0.0 0.0 0.00 0.00 0.00 69 1013.8
20260905021654 87 46 0.0 0.0 0.00 0.00 0.00 68 1013.7
20260905020651 86 44 0.0 0.0 0.00 0.00 0.00 69 1013.3
20260905015650 86 46 0.0 0.0 0.00 0.00 0.00 71 1013.3
20260905014650 86 45 0.0 0.0 0.00 0.00 0.00 71 1013.2
20260905013648 86 45 0.0 0.0 0.00 0.00 0.00 68 1012.9
20260905012643 87 45 0.0 0.0 0.00 0.00 0.00 67 1012.8
20260905011642 87 45 0.0 0.0 0.00 0.00 0.00 67 1012.8
20260905010638 88 40 0.0 0.0 0.00 0.00 0.00 66 1012.9
20260905005636 89 41 0.0 0.0 0.00 0.00 0.00 66 1012.5
20260905004631 90 47 0.0 0.0 0.00 0.00 0.00 62 1012.8
20260905003628 90 46 0.0 0.0 0.00 0.00 0.00 60 1012.5
20260905002624 91 41 0.0 0.0 0.00 0.00 0.00 59 1012.3
20260905001621 91 42 0.0 0.0 0.00 0.00 0.00 58 1012.4
20260905000615 92 41 1.0 1.0 0.00 0.00 0.00 58 1012.5
20260904235611 93 43 0.0 0.0 0.00 0.00 0.00 56 1012.4
20260904234606 93 46 0.0 1.0 0.00 0.00 0.00 57 1012.4